Location: Unspecified
(50.0830°N, 0.0000°E)
Time: 07:31:25
(UTC+00:00)

N. Korean satellite - Pass Details

Date: 15 November 2019
Orbit: 455 x 507 km, 97.2° (Epoch: 12 December)

Event Time Altitude Azimuth Distance (km) Brightness Sun altitude
Rises 16:53:44 0° 165° (SSE) 2,548 10.3 -6.3°
Reaches altitude 10° 16:55:47 10° 166° (SSE) 1,680 9.4 -6.6°
Maximum altitude 16:59:24 89° 104° (ESE) 504 6.6 -7.2°
Drops below altitude 10° 17:03:07 10° 347° (NNW) 1,720 9.3 -7.7°
Sets 17:05:14 0° 348° (NNW) 2,615 10.2 -8.0°
